Regional Weather Roundup
Issued by NWS

Home | Current Version | Previous Version | Text Only | Print | Product List | Glossary Off
Versions: 1 2 3 4 5 6 7 8 9 10 11 12 13 14 15 16 17 18 19 20 21 22 23 24 25 26 27 28 29 30 31 32 33 34 35 36 37 38 39 40 41 42 43 44 45 46 47 48 49 50

000
ASUS45 KPSR 251210
RWRAZ

ARIZONA HOURLY REGIONAL WEATHER ROUNDUP
NATIONAL WEATHER SERVICE PHOENIX AZ
500 AM MST MON MAY 25 2015

NOTE: FAIR INDICATES FEW OR NO CLOUDS BELOW 12,000 FEET WITH NO
SIGNIFICANT WEATHER AND/OR OBSTRUCTIONS TO VISIBILITY.

AZZ001>003-036-251300-
NORTHWEST ARIZONA

CITY           SKY/WX    TMP DP  RH WIND       PRES   REMARKS
BULLHEAD CITY  PTCLDY    72  54  53 N10       29.84R
KINGMAN        PTCLDY    51  48  89 SE3       29.95S
6HR MIN TEMP:  51; 6HR MAX TEMP:  61;

$$

AZZ004>008-015-016-018-251300-
NORTH CENTRAL ARIZONA

CITY           SKY/WX    TMP DP  RH WIND       PRES   REMARKS
GRAND CANYON   LGT RAIN  45  43  93 VRB3      30.07R
6HR MIN TEMP:  40; 6HR MAX TEMP:  47; 6HR PCP:  0.02;

WILLIAMS       DRIZZLE   46  43  87 N3        30.14S
PRESCOTT       CLOUDY    53  37  54 CALM      30.02R
6HR MIN TEMP:  50; 6HR MAX TEMP:  57;

FLAGSTAFF      CLOUDY    43  39  86 W3        30.07S
6HR MIN TEMP:  42; 6HR MAX TEMP:  47;

PAYSON         MOCLDY    50  36  57 CALM      30.04R
PAGE           MOCLDY    55  47  74 CALM      29.94R
6HR MIN TEMP:  54; 6HR MAX TEMP:  62;

$$

AZZ009>014-017-251300-
NORTHEAST ARIZONA

CITY           SKY/WX    TMP DP  RH WIND       PRES   REMARKS
WINSLOW        MOCLDY    53  39  59 S5        29.99S
6HR MIN TEMP:  52; 6HR MAX TEMP:  56;

SAINT JOHNS    MOCLDY    47  35  63 S7        30.02S
6HR MIN TEMP:  44; 6HR MAX TEMP:  49;

WINDOW ROCK    PTCLDY    39  35  86 CALM      30.04S
6HR MIN TEMP:  37; 6HR MAX TEMP:  48;

SHOW LOW       PTCLDY    46  32  57 S10       30.07R
$$

AZZ023-251300-
GREATER PHOENIX AREA

CITY           SKY/WX    TMP DP  RH WIND       PRES   REMARKS
PHOENIX        PTCLDY    69  43  38 E6        29.86R
6HR MIN TEMP:  69; 6HR MAX TEMP:  78;

BUCKEYE          N/A     61  41  48 CALM      29.87S
LUKE AFB       CLEAR     61  45  54 NW7       29.86R
6HR MIN TEMP:  61; 6HR MAX TEMP:  72;

DEER VALLEY    CLEAR     63  41  44 CALM      29.87R
6HR MIN TEMP:  62; 6HR MAX TEMP:  70;

SCOTTSDALE     CLEAR     65  46  50 NE3       29.89R
6HR MIN TEMP:  64; 6HR MAX TEMP:  74;

MESA-GATEWAY   PTCLDY    61  41  48 E7        29.90R
$$

AZZ027-028-251300-
SOUTHWEST MARICOPA COUNTY AND PINAL COUNTY

CITY           SKY/WX    TMP DP  RH WIND       PRES   REMARKS
CASA GRANDE    CLEAR     61  43  51 CALM      29.88R
6HR MIN TEMP:  61; 6HR MAX TEMP:  70;

GILA BEND      FAIR      65  48  53 E2        29.86R
6HR MIN TEMP:  65; 6HR MAX TEMP:  73;

$$

AZZ503-504-507>509-251300-
SOUTHEAST ARIZONA

CITY           SKY/WX    TMP DP  RH WIND       PRES   REMARKS
TUCSON         CLEAR     58  34  40 SE8       29.96R
6HR MIN TEMP:  58; 6HR MAX TEMP:  68;

DAVIS-MONTHAN  CLEAR     56  35  45 SE7       29.94R
6HR MIN TEMP:  56; 6HR MAX TEMP:  68;

NOGALES        CLEAR     48  36  63 CALM      30.00R
6HR MIN TEMP:  48; 6HR MAX TEMP:  57;

SIERRA VISTA   CLEAR     51  38  61 S2        30.03R
6HR MIN TEMP:  51; 6HR MAX TEMP:  57;

DOUGLAS        CLEAR     45  27  49 CALM      30.01R
6HR MIN TEMP:  43; 6HR MAX TEMP:  54;

SAFFORD        CLEAR     51  33  50 SE5       29.95R
6HR MIN TEMP:  50; 6HR MAX TEMP:  64;

$$

AZZ020-021-025-026-031-251300-
SOUTHWEST ARIZONA

CITY           SKY/WX    TMP DP  RH WIND       PRES   REMARKS
YUMA           CLEAR     69  50  50 SE3       29.84R
6HR MIN TEMP:  68; 6HR MAX TEMP:  76;

$$

CAZ031-033-041-043-047-048-061-251300-
SOUTHERN CALIFORNIA

CITY           SKY/WX    TMP DP  RH WIND       PRES   REMARKS
DOWNTOWN L.A.  CLEAR     57  53  86 CALM      29.94S
6HR MIN TEMP:  57; 6HR MAX TEMP:  60;

L.A. AIRPORT   PTCLDY    58  54  86 S3        29.94F
6HR MIN TEMP:  57; 6HR MAX TEMP:  59;

SAN DIEGO      MOCLDY    63  53  70 VRB3      29.97S
6HR MIN TEMP:  63; 6HR MAX TEMP:  64;

BURBANK        CLEAR     56  48  74 CALM      29.93S
6HR MIN TEMP:  56; 6HR MAX TEMP:  60;

ONTARIO        CLOUDY    54  52  93 CALM      29.94F FOG
6HR MIN TEMP:  53; 6HR MAX TEMP:  58;

RIVERSIDE      MOCLDY    54  52  93 CALM      29.95F
6HR MIN TEMP:  54; 6HR MAX TEMP:  59;

PALM SPRINGS   CLEAR     65  51  60 S3        29.85S
6HR MIN TEMP:  65; 6HR MAX TEMP:  74;

EL CENTRO NAS  CLEAR     65  48  54 CALM      29.84R
6HR MIN TEMP:  64; 6HR MAX TEMP:  73;

IMPERIAL       CLEAR     66  48  52 SE6       29.82R
6HR MIN TEMP:  66; 6HR MAX TEMP:  73;

BLYTHE         CLEAR     68  48  48 S12       29.82S
6HR MIN TEMP:  68; 6HR MAX TEMP:  76;

NEEDLES        CLEAR     72  52  49 N13       29.83S
6HR MIN TEMP:  72; 6HR MAX TEMP:  81;

$$

NVZ020-UTZ003-251300-
SOUTHERN NEVADA-UTAH

CITY           SKY/WX    TMP DP  RH WIND       PRES   REMARKS
LAS VEGAS      PTCLDY    63  55  75 S7        29.87S
6HR MIN TEMP:  62; 6HR MAX TEMP:  66; 6HR PCP:  0.01;

SALT LAKE CITY MOCLDY    53  49  86 S3        29.93R
6HR MIN TEMP:  52; 6HR MAX TEMP:  55; 6HR PCP:  0.01;

$$

NMZ009-TXZ055-251300-
NEW MEXICO-WEST TEXAS

CITY           SKY/WX    TMP DP  RH WIND       PRES   REMARKS
ALBUQUERQUE    PTCLDY    48  45  89 SE6       30.00R
6HR MIN TEMP:  48; 6HR MAX TEMP:  55;

EL PASO        PTCLDY    64  32  30 NW7       29.96R
6HR MIN TEMP:  64; 6HR MAX TEMP:  72;

$$


........................KEY........................
SKY/WX - SKY CONDITION/WEATHER
TMP    - TEMPERATURE IN FAHRENHEIT
DP     - DEW POINT IN FAHRENHEIT
RH     - RELATIVE HUMIDITY IN PERCENT
WIND   - DIRECTION AND SPEED IN MILES PER HOUR (MPH)
VRB    - VARIABLE WIND DIRECTION
PRES   - MEAN SEA LEVEL PRESSURE IN INCHES OF MERCURY
         F - FALLING PRESSURE   R - RISING PRESSURE
         S - STEADY PRESSURE
VSB    - VISIBILITY IN MILES
HX     - HEAT INDEX IN FAHRENHEIT
WCI    - WIND CHILL INDEX IN FAHRENHEIT
TC     - TEMPERATURE IN CELSIUS WHICH IS ALSO KNOWN AS
         TEMPERATURE IN CENTIGRADE
AFB    - AIR FORCE BASE
         LUKE AFB IS LUKE AIR FORCE BASE
         DAVIS-MONTHAN IS DAVIS-MONTHAN AIR FORCE BASE
NAS    - NAVAL AIR STATION
         EL CENTRO NAS IS EL CENTRO NAVAL AIR STATION
N/A    - NOT AVAILABLE




USA.gov is the U.S. government's official web portal to all federal, state and local government web resources and services.